Weather History for Buffalo, WY

Change the Weather History Date:

Saturday, March 2, 2013

  Actual Average Record
Temperature  
Mean Temperature 45 °F 31 °F  
Max Temperature 55 °F 42 °F 65 °F (2009)
Min Temperature 35 °F 20 °F -11 °F (2014)
Degree Days  
Heating Degree Days 20 34  
Month to date heating degree days 49 69  
Since 1 July heating degree days 4998 5309  
Cooling Degree Days 0 0  
Month to date cooling degree days 0 0  
Year to date cooling degree days 0 0  
Moisture  
Dew Point 25 °F    
Average Humidity 45    
Maximum Humidity 60    
Minimum Humidity 30    
Precipitation  
Precipitation 0.00 in 0.02 in 0.16 in (1951)
Month to date precipitation T 0.04  
Year to date precipitation 0.61 0.81  
Sea Level Pressure  
Sea Level Pressure 30.08 in    
Wind  
Wind Speed 4 mph (South)    
Max Wind Speed 14 mph    
Max Gust Speed 16 mph    
Visibility 10 miles    
Events      
T = Trace of Precipitation, MM = Missing Value Source: NWS Daily Summary

Daily Weather History Graph

Daily Weather History Graph

Search for Another Location

Airport:

Trip Planner

Search our weather history database for the weather conditions in past years. The results will help you decide how hot, cold, wet, or windy it might be!

Date:

Astronomy

Mar. 02, 2013 Rise Set
Actual Time 6:41 AM MST 5:56 PM MST
Civil Twilight 6:12 AM MST 6:25 PM MST
Nautical Twilight 5:39 AM MST 6:59 PM MST
Astronomical Twilight 5:05 AM MST 7:33 PM MST
Moon 11:54 PM MST (3/2) 8:58 AM MST (3/2)
Length of Visible Light 12h 13m
Length of Day
11h 14m
Waning Gibbous, 73% of the Moon is Illuminated
Mar 2
Waning Gibbous
Mar 4
Last Quarter
Mar 11
New
Mar 19
First Quarter
Mar 27
Full

Hourly Weather History & Observations

Time (MST) Temp. Windchill Dew Point Humidity Pressure Visibility Wind Dir Wind Speed Gust Speed Precip Events Conditions
12:53 AM 44.1 °F 40.1 °F 23.0 °F 43% 30.22 in 10.0 mi SSW 6.9 mph - N/A   Clear
2:53 AM 39.0 °F 34.8 °F 24.1 °F 55% 30.21 in 10.0 mi NNW 5.8 mph - N/A   Clear
3:53 AM 39.0 °F 34.8 °F 23.0 °F 53% 30.19 in 10.0 mi WSW 5.8 mph - N/A   Clear
5:53 AM 39.0 °F 35.7 °F 23.0 °F 53% 30.19 in 10.0 mi WSW 4.6 mph - N/A   Clear
6:53 AM 37.9 °F 33.5 °F 23.0 °F 55% 30.22 in 10.0 mi NW 5.8 mph - N/A   Clear
8:53 AM 48.0 °F - 25.0 °F 41% 30.17 in 10.0 mi Calm Calm - N/A   Clear
9:53 AM 48.9 °F - 28.0 °F 44% 30.16 in 10.0 mi Calm Calm - N/A   Clear
10:53 AM 52.0 °F - 26.1 °F 37% 30.15 in 10.0 mi ESE 3.5 mph - N/A   Clear
11:53 AM 54.0 °F - 25.0 °F 33% 30.11 in 10.0 mi ENE 4.6 mph - N/A   Clear
12:53 PM 53.1 °F - 25.0 °F 34% 30.09 in 10.0 mi Calm Calm - N/A   Clear
1:53 PM 55.0 °F - 24.1 °F 30% 30.06 in 10.0 mi Calm Calm - N/A   Clear
2:53 PM 53.1 °F - 26.1 °F 35% 30.07 in 10.0 mi ESE 5.8 mph - N/A   Clear
3:53 PM 52.0 °F - 28.0 °F 40% 30.06 in 10.0 mi Calm Calm - N/A   Clear
4:53 PM 51.1 °F - 24.1 °F 35% 30.05 in 10.0 mi Calm Calm - N/A   Clear
6:53 PM 41.0 °F 34.7 °F 28.0 °F 60% 30.05 in 10.0 mi WSW 10.4 mph - N/A   Clear
7:53 PM 43.0 °F 37.7 °F 25.0 °F 49% 30.01 in 10.0 mi SSE 9.2 mph - N/A   Clear
8:53 PM 39.9 °F 35.1 °F 26.1 °F 58% 29.94 in 10.0 mi SSE 6.9 mph - N/A   Clear
9:53 PM 45.0 °F 40.1 °F 24.1 °F 44% 29.89 in 10.0 mi SSW 9.2 mph - N/A   Clear
10:53 PM 41.0 °F 38.0 °F 25.0 °F 53% 29.86 in 10.0 mi East 4.6 mph - N/A   Clear
11:53 PM 37.9 °F 35.5 °F 26.1 °F 62% 29.82 in 10.0 mi Variable 3.5 mph 16.1 mph N/A   Clear